Lid_Strength_Index
18 17 18 17 16 16 15 15 15 12 11 10 10 9 9 9 8 8 7 7 6 6 5 5 4 4 4
19 18 18 17 16 17 15 14 15 13 11 11 10 10 10 9 9 8 8 8 7 7 6 6 5 5 4
19 18 18 17 17 16 16 16 15 13 12 11 11 10 10 9 9 9 9 8 8 8 8 7 6 5 4
19 18 18 17 17 18 18 17 17 15 13 12 11 11 11 10 10 10 10 9 9 8 7 7 6 6 5
19 19 18 18 18 18 18 17 17 16 17 16 15 15 14 12 12 11 10 9 9 8 7 7 6 6 5
21 19 18 18 19 18 18 19 21 17 17 17 16 16 15 15 12 11 10 9 8 8 7 7 6 6 5
20 19 19 18 18 18 18 19 19 17 17 19 16 17 15 14 12 11 10 9 8 8 7 7 7 6 6
17 17 18 17 17 17 18 18 18 17 16 20 17 17 15 15 11 10 10 9 8 8 7 7 7 7 7
14 14 14 14 15 17 19 20 21 19 17 19 18 17 16 15 14 11 10 9 9 8 8 8 8 8 8
18 18 17 17 15 17 18 21 20 21 17 18 17 16 19 16 14 13 13 10 9 8 8 8 9 10 11
18 19 18 18 18 17 17 18 19 18 16 16 17 17 17 17 15 14 13 12 11 11 9 9 9 10 12
19 19 19 18 18 17 16 16 16 16 15 15 17 17 17 17 17 14 13 12 11 12 12 11 10 10 10
20 20 19 18 17 17 16 16 15 15 14 15 16 16 15 16 16 15 14 13 12 13 13 13 13 12 13
21 19 18 18 18 17 18 17 17 17 15 15 15 15 15 15 14 15 14 16 14 14 13 13 12 12 12
20 20 20 19 19 18 18 18 19 19 18 15 14 14 13 14 16 14 14 15 14 14 14 15 14 13 13
21 21 21 21 21 19 18 18 19 19 17 16 16 16 16 15 12 14 14 15 15 14 14 15 15 14 13
22 23 22 22 20 20 19 19 19 18 17 16 17 17 18 19 15 10 16 15 15 14 14 14 15 14 13